Torna al catalogo

ONEWEB-0413

AttivoComunicazioniPO
NORAD 50490·PAYLOAD·🇬🇧 United Kingdom

Lanciato Dec 27, 2021 da Baikonur Cosmodrome

Loading…

Prossimi Passaggi (prossime 24 ore)

TLE

AggiornatoSource: CelesTrak SupGP

Epoca: Sep 14, 2026, 12:23 UTC

1 50490C 21132X   26257.51615000  .00002501  00000+0  63527-2 0  2576
2 50490  87.9166 317.7082 0002131  92.4288  20.2854 13.18682311    11

Traccia ONEWEB-0413 in tempo reale con AllMySat

Download on the App Store